Location: Squirrel Cove
(50.1074°N, 124.9139°W)
Time: 19:29:08
(UTC-08:00)

Envisat - Pass Details

Date: 04 December 2022
Orbit: 763 x 765 km, 98.2° (Epoch: 05 February)

Event Time Altitude Azimuth Distance (km) Brightness Sun altitude
Rises 17:02:30 0° 214° (SW) 3,221 7.4 -6.8°
Reaches altitude 10° 17:05:44 10° 236° (SW) 2,301 7.2 -7.3°
Maximum altitude 17:08:44 16° 273° (W) 1,939 6.1 -7.7°
Drops below altitude 10° 17:11:46 10° 310° (NW) 2,312 5.8 -8.2°
Sets 17:15:03 0° 332° (NNW) 3,245 6.3 -8.7°
